Voltar ao catálogo

QIANFAN-24

AtivoComunicaçõesPO
NORAD 61557·PAYLOAD·🇨🇳 China

Lançado Oct 15, 2024 de Taiyuan Satellite Launch Center

Loading…

Próximas Passagens (próximas 24 horas)

TLE

AtualizadoSource: Space-Track

Época: Sep 14, 2026, 21:53 UTC

1 61557U 24185F   26257.91236247  .00000471  00000-0  19837-3 0  9993
2 61557  88.9827  44.9349 0011567 113.4906 246.7503 14.24153495109325

Acompanhe QIANFAN-24 em tempo real com AllMySat

Download on the App Store